Oasis of the Seas — C6XS7 — position and weather

sailwx.info

Track history (hours):
 
Tides and Currents Weather Stations Pressure Air Temp Water Temp Dewpoint Dewpoint Depression Visibility Wind Speed Wind Dir Waves Ship Positions

Oasis of the Seas

Last reported at 2015-Jan-24 23:32 UTC. Time now 2015-Jan-27 08:18 UTC.
Position N 26°07' W 079°45'.

Length 360 m; draft 9.3 m.

Type: Passenger vessel. MMSI: 311020600.

Date/timePositionNaut miles runAvg speedWind from/ knotsBaromVisibWave heightAir tempDewpointWater temp
2015-Jan-24 23:32N 26°07' W 079°45'1515.2
2015-Jan-24 22:33N 26°06' W 080°01'5 5.1
2015-Jan-24 21:31N 26°05' W 080°07'0 0.0
2015-Jan-24 20:31N 26°05' W 080°07'0 0.0
2015-Jan-24 19:31N 26°05' W 080°07'0 0.0
2015-Jan-24 18:31N 26°05' W 080°07'0 0.0
2015-Jan-24 17:22N 26°05' W 080°07'0 0.0
2015-Jan-24 16:22N 26°05' W 080°07'0 0.0
2015-Jan-24 15:25N 26°05' W 080°07'0 0.0
2015-Jan-24 14:25N 26°05' W 080°07'0 0.0
2015-Jan-24 13:28N 26°05' W 080°07'0 0.0
2015-Jan-24 12:28N 26°05' W 080°07'0 0.0
2015-Jan-24 11:28N 26°05' W 080°07'0 0.1
2015-Jan-24 10:33N 26°05' W 080°07'9 8.6
2015-Jan-24 09:33N 26°01' W 079°59'1615.7
2015-Jan-24 08:33N 25°45' W 079°56'49915.4
2015-Jan-23 00:09N 20°32' W 086°59'3 4.9
2015-Jan-22 23:30N 20°29' W 086°59'0 0.0
2015-Jan-22 22:30N 20°29' W 086°59'0 0.0
2015-Jan-22 21:30N 20°29' W 086°59'0 0.0
2015-Jan-22 20:30N 20°29' W 086°59'0 0.0
2015-Jan-22 19:30N 20°29' W 086°59'0 0.0
2015-Jan-22 18:30N 20°29' W 086°59'0 0.0
2015-Jan-22 17:30N 20°29' W 086°59'0 0.0
2015-Jan-22 16:33N 20°29' W 086°59'0 0.0
2015-Jan-22 15:33N 20°29' W 086°59'0 0.0
2015-Jan-22 14:33N 20°29' W 086°59'0 0.0
2015-Jan-22 13:33N 20°29' W 086°59'0 0.2
2015-Jan-22 12:33N 20°29' W 086°59'  
2015-Jan-17 23:05N 25°48' W 080°00'1018.2
2015-Jan-17 22:33N 25°58' W 080°02'9 8.8
2015-Jan-17 21:32N 26°05' W 080°07'0 0.0
2015-Jan-17 20:32N 26°05' W 080°07'0 0.0
2015-Jan-17 19:32N 26°05' W 080°07'0 0.0
2015-Jan-17 18:32N 26°05' W 080°07'0 0.0
2015-Jan-17 17:32N 26°05' W 080°07'0 0.0
2015-Jan-17 16:32N 26°05' W 080°07'0 0.0
2015-Jan-17 15:20N 26°05' W 080°07'0 0.0
2015-Jan-17 14:26N 26°05' W 080°07'0 0.0
2015-Jan-17 13:26N 26°05' W 080°07'0 0.0
2015-Jan-17 12:26N 26°05' W 080°07'0 0.0
2015-Jan-17 11:29N 26°05' W 080°07'0 0.3
2015-Jan-17 10:33N 26°05' W 080°07'1212.4
2015-Jan-17 09:33N 26°06' W 079°53'1716.6
2015-Jan-17 08:33N 26°08' W 079°35'1817.1
2015-Jan-17 07:32N 26°10' W 079°16'  
Track history (hours):
 
Tides and Currents Weather Stations Pressure Air Temp Water Temp Dewpoint Dewpoint Depression Visibility Wind Speed Wind Dir Waves Ship Positions

Oasis of the Seas

Last reported at 2015-Jan-24 23:32 UTC. Time now 2015-Jan-27 08:18 UTC.
Position N 26°07' W 079°45'.

Length 360 m; draft 9.3 m.

Type: Passenger vessel. MMSI: 311020600.

Date/timePositionNaut miles runAvg speedWind from/ knotsBaromVisibWave heightAir tempDewpointWater temp
2015-Jan-24 23:32N 26°07' W 079°45'1515.2
2015-Jan-24 22:33N 26°06' W 080°01'5 5.1
2015-Jan-24 21:31N 26°05' W 080°07'0 0.0
2015-Jan-24 20:31N 26°05' W 080°07'0 0.0
2015-Jan-24 19:31N 26°05' W 080°07'0 0.0
2015-Jan-24 18:31N 26°05' W 080°07'0 0.0
2015-Jan-24 17:22N 26°05' W 080°07'0 0.0
2015-Jan-24 16:22N 26°05' W 080°07'0 0.0
2015-Jan-24 15:25N 26°05' W 080°07'0 0.0
2015-Jan-24 14:25N 26°05' W 080°07'0 0.0
2015-Jan-24 13:28N 26°05' W 080°07'0 0.0
2015-Jan-24 12:28N 26°05' W 080°07'0 0.0
2015-Jan-24 11:28N 26°05' W 080°07'0 0.1
2015-Jan-24 10:33N 26°05' W 080°07'9 8.6
2015-Jan-24 09:33N 26°01' W 079°59'1615.7
2015-Jan-24 08:33N 25°45' W 079°56'49915.4
2015-Jan-23 00:09N 20°32' W 086°59'3 4.9
2015-Jan-22 23:30N 20°29' W 086°59'0 0.0
2015-Jan-22 22:30N 20°29' W 086°59'0 0.0
2015-Jan-22 21:30N 20°29' W 086°59'0 0.0
2015-Jan-22 20:30N 20°29' W 086°59'0 0.0
2015-Jan-22 19:30N 20°29' W 086°59'0 0.0
2015-Jan-22 18:30N 20°29' W 086°59'0 0.0
2015-Jan-22 17:30N 20°29' W 086°59'0 0.0
2015-Jan-22 16:33N 20°29' W 086°59'0 0.0
2015-Jan-22 15:33N 20°29' W 086°59'0 0.0
2015-Jan-22 14:33N 20°29' W 086°59'0 0.0
2015-Jan-22 13:33N 20°29' W 086°59'0 0.2
2015-Jan-22 12:33N 20°29' W 086°59'  
2015-Jan-17 23:05N 25°48' W 080°00'1018.2
2015-Jan-17 22:33N 25°58' W 080°02'9 8.8
2015-Jan-17 21:32N 26°05' W 080°07'0 0.0
2015-Jan-17 20:32N 26°05' W 080°07'0 0.0
2015-Jan-17 19:32N 26°05' W 080°07'0 0.0
2015-Jan-17 18:32N 26°05' W 080°07'0 0.0
2015-Jan-17 17:32N 26°05' W 080°07'0 0.0
2015-Jan-17 16:32N 26°05' W 080°07'0 0.0
2015-Jan-17 15:20N 26°05' W 080°07'0 0.0
2015-Jan-17 14:26N 26°05' W 080°07'0 0.0
2015-Jan-17 13:26N 26°05' W 080°07'0 0.0
2015-Jan-17 12:26N 26°05' W 080°07'0 0.0
2015-Jan-17 11:29N 26°05' W 080°07'0 0.3
2015-Jan-17 10:33N 26°05' W 080°07'1212.4
2015-Jan-17 09:33N 26°06' W 079°53'1716.6
2015-Jan-17 08:33N 26°08' W 079°35'1817.1
2015-Jan-17 07:32N 26°10' W 079°16'  

Dump ship's entire track history